User: anonymous
Location: Unspecified
(0.0000°N, 0.0000°E)
Time: 02:10:28
(UTC+00:00)
Language:

CHIBIS-M - Orbit

View from above orbital plane
View from above orbital plane
View from above satellite
View from above satellite

Ground track
Ground track

The orbit data is extracted from the following two-line orbital elements,

1 38051U 11062C   14204.56972190  .00037364  00000-0  37747-3 0  7450
2 38051 051.6249 039.0071 0003972 298.5745 113.2465 15.64943297139800
Epoch (UTC): 23 July 2014 13:40:23
Eccentricity: 0.0003972
inclination: 51.6249°
perigee height: 371 km
apogee height: 376 km
right ascension of ascending node: 39.0071°
argument of perigee: 298.5745°
revolutions per day: 15.64943297
mean anomaly at epoch: 113.2465°
orbit number at epoch: 13980

The dashed part of the orbit path shows where the satellite is in the earth's shadow,  

DLR